• In Österreich
  • Länderverzeichnis
  • Für 7 Tage
  • Wassertemperatur
  • Satellitenkarten
  • Wetterkarte
  • News
  • Widgets
  • user-avatar
    Anmelden

    Stündliche Wetter Duchnice

    Heute, 16 Juli, Montag

    Zeit Temperatur Niederschläge Wind Luftdruck Luftfeuchtigkeit
    00:00 +17°C° 0 mm 3 m/S 750 mmHg 92%
    01:00 +17°C° 0 mm 3 m/S 750 mmHg 94%
    02:00 +17°C° 0,2 mm 3 m/S 750 mmHg 95%
    03:00 +16°C° 0,2 mm 3 m/S 750 mmHg 95%
    04:00 +16°C° 0,2 mm 3 m/S 750 mmHg 96%
    05:00 +17°C° 0,8 mm 3 m/S 750 mmHg 94%
    06:00 +18°C° 0,8 mm 3 m/S 750 mmHg 92%
    07:00 +19°C° 0 mm 4 m/S 749 mmHg 88%
    08:00 +20°C° 0,6 mm 4 m/S 749 mmHg 85%
    09:00 +22°C° 0,6 mm 4 m/S 749 mmHg 82%
    10:00 +23°C° 0,6 mm 4 m/S 748 mmHg 78%
    11:00 +25°C° 0,6 mm 4 m/S 748 mmHg 74%
    12:00 +26°C° 0,6 mm 4 m/S 748 mmHg 68%
    13:00 +27°C° 0,6 mm 4 m/S 748 mmHg 63%
    14:00 +26°C° 1 mm 4 m/S 748 mmHg 66%
    15:00 +26°C° 1 mm 4 m/S 748 mmHg 70%
    16:00 +25°C° 1 mm 4 m/S 747 mmHg 73%
    17:00 +23°C° 0,7 mm 4 m/S 747 mmHg 78%
    18:00 +22°C° 0,7 mm 3 m/S 747 mmHg 83%
    19:00 +21°C° 0,7 mm 3 m/S 747 mmHg 89%
    20:00 +20°C° 0,1 mm 3 m/S 747 mmHg 91%
    21:00 +20°C° 0,1 mm 3 m/S 747 mmHg 93%
    22:00 +19°C° 0,1 mm 2 m/S 746 mmHg 95%
    23:00 +19°C° 0,8 mm 3 m/S 746 mmHg 95%

    Morgen, 17 Juli, Dienstag

    Zeit Temperatur Niederschläge Wind Luftdruck Luftfeuchtigkeit
    00:00 +19°C° 0,8 mm 3 m/S 746 mmHg 96%
    01:00 +19°C° 0,8 mm 3 m/S 746 mmHg 96%
    02:00 +19°C° 0,8 mm 3 m/S 746 mmHg 96%
    03:00 +18°C° 0,8 mm 3 m/S 746 mmHg 96%
    04:00 +18°C° 0,8 mm 3 m/S 745 mmHg 96%
    05:00 +19°C° 0,4 mm 3 m/S 745 mmHg 95%
    06:00 +19°C° 0,4 mm 3 m/S 745 mmHg 94%
    07:00 +20°C° 0,4 mm 3 m/S 745 mmHg 92%
    08:00 +21°C° 0,1 mm 2 m/S 745 mmHg 89%
    09:00 +21°C° 0,1 mm 2 m/S 745 mmHg 86%
    10:00 +23°C° 0,1 mm 2 m/S 745 mmHg 83%
    11:00 +24°C° 0,2 mm 2 m/S 745 mmHg 79%
    12:00 +25°C° 0,2 mm 2 m/S 745 mmHg 75%
    13:00 +26°C° 0,2 mm 2 m/S 745 mmHg 71%
    14:00 +26°C° 0,3 mm 2 m/S 745 mmHg 72%
    15:00 +26°C° 0,3 mm 3 m/S 744 mmHg 73%
    16:00 +26°C° 0,3 mm 3 m/S 744 mmHg 73%
    17:00 +25°C° 0,4 mm 3 m/S 744 mmHg 78%
    18:00 +24°C° 0,4 mm 2 m/S 744 mmHg 82%
    19:00 +23°C° 0,4 mm 2 m/S 744 mmHg 86%
    20:00 +21°C° 0,2 mm 2 m/S 744 mmHg 89%
    21:00 +21°C° 0,2 mm 2 m/S 744 mmHg 91%
    22:00 +20°C° 0,2 mm 2 m/S 744 mmHg 94%
    23:00 +20°C° 0,4 mm 2 m/S 744 mmHg 95%

    übermorgen, 18 Juli, Mittwoch

    Zeit Temperatur Niederschläge Wind Luftdruck Luftfeuchtigkeit
    00:00 +20°C° 0,4 mm 2 m/S 744 mmHg 96%
    01:00 +19°C° 0,4 mm 3 m/S 744 mmHg 97%
    02:00 +20°C° 0,6 mm 3 m/S 744 mmHg 97%
    03:00 +20°C° 0,6 mm 3 m/S 744 mmHg 97%
    04:00 +20°C° 0,6 mm 3 m/S 744 mmHg 97%
    05:00 +20°C° 0,3 mm 3 m/S 744 mmHg 95%
    06:00 +21°C° 0,3 mm 3 m/S 744 mmHg 93%
    07:00 +22°C° 0,3 mm 3 m/S 744 mmHg 91%
    08:00 +24°C° 0,5 mm 3 m/S 744 mmHg 86%
    09:00 +25°C° 0,5 mm 3 m/S 745 mmHg 82%
    10:00 +26°C° 0,5 mm 3 m/S 745 mmHg 77%
    11:00 +27°C° 0,9 mm 3 m/S 745 mmHg 75%
    12:00 +28°C° 0,9 mm 3 m/S 745 mmHg 73%
    13:00 +28°C° 0,9 mm 3 m/S 745 mmHg 71%
    14:00 +28°C° 1,4 mm 4 m/S 745 mmHg 73%
    15:00 +28°C° 1,4 mm 4 m/S 745 mmHg 75%
    16:00 +27°C° 1,4 mm 4 m/S 745 mmHg 78%
    17:00 +26°C° 1,4 mm 4 m/S 745 mmHg 81%
    18:00 +26°C° 1,4 mm 4 m/S 745 mmHg 84%
    19:00 +25°C° 1,4 mm 4 m/S 745 mmHg 87%
    20:00 +24°C° 1,7 mm 3 m/S 745 mmHg 89%
    21:00 +24°C° 1,7 mm 3 m/S 746 mmHg 90%
    22:00 +22°C° 1,7 mm 3 m/S 746 mmHg 92%
    23:00 +22°C° 0,8 mm 3 m/S 746 mmHg 93%

    19 Juli, Donnerstag

    Zeit Temperatur Niederschläge Wind Luftdruck Luftfeuchtigkeit
    00:00 +21°C° 0,8 mm 3 m/S 746 mmHg 94%
    01:00 +21°C° 0,8 mm 3 m/S 746 mmHg 95%
    02:00 +21°C° 0,3 mm 3 m/S 746 mmHg 95%
    03:00 +21°C° 0,3 mm 3 m/S 746 mmHg 96%
    04:00 +20°C° 0,3 mm 4 m/S 746 mmHg 96%
    05:00 +21°C° 0,3 mm 4 m/S 746 mmHg 93%
    06:00 +22°C° 0,3 mm 4 m/S 747 mmHg 91%
    07:00 +22°C° 0,3 mm 4 m/S 747 mmHg 89%
    08:00 +25°C° 0,2 mm 4 m/S 747 mmHg 81%
    09:00 +26°C° 0,2 mm 4 m/S 747 mmHg 74%
    10:00 +27°C° 0,2 mm 5 m/S 747 mmHg 67%
    11:00 +28°C° 0,2 mm 5 m/S 747 mmHg 65%
    12:00 +28°C° 0,2 mm 5 m/S 747 mmHg 62%
    13:00 +29°C° 0,2 mm 5 m/S 747 mmHg 60%
    14:00 +29°C° 0,2 mm 5 m/S 747 mmHg 61%
    15:00 +29°C° 0,2 mm 6 m/S 747 mmHg 63%
    16:00 +28°C° 0,2 mm 6 m/S 747 mmHg 64%
    17:00 +27°C° 0,5 mm 5 m/S 747 mmHg 70%
    18:00 +26°C° 0,5 mm 5 m/S 748 mmHg 76%
    19:00 +23°C° 0,5 mm 4 m/S 748 mmHg 82%
    20:00 +22°C° 0,2 mm 4 m/S 748 mmHg 85%
    21:00 +21°C° 0,2 mm 4 m/S 748 mmHg 88%
    22:00 +20°C° 0,2 mm 4 m/S 748 mmHg 91%
    23:00 +20°C° 0 mm 4 m/S 748 mmHg 92%

    20 Juli, Freitag

    Zeit Temperatur Niederschläge Wind Luftdruck Luftfeuchtigkeit
    00:00 +19°C° 0 mm 4 m/S 749 mmHg 93%
    01:00 +19°C° 0 mm 4 m/S 749 mmHg 94%
    02:00 +19°C° 0 mm 4 m/S 749 mmHg 95%
    03:00 +18°C° 0 mm 4 m/S 749 mmHg 95%
    04:00 +18°C° 0 mm 4 m/S 749 mmHg 95%
    05:00 +19°C° 0 mm 4 m/S 749 mmHg 93%
    06:00 +19°C° 0 mm 4 m/S 749 mmHg 91%
    07:00 +20°C° 0 mm 4 m/S 749 mmHg 88%
    08:00 +21°C° 0,1 mm 4 m/S 749 mmHg 83%
    09:00 +22°C° 0,1 mm 4 m/S 749 mmHg 78%
    10:00 +25°C° 0,1 mm 5 m/S 749 mmHg 73%
    11:00 +25°C° 0,1 mm 5 m/S 749 mmHg 69%
    12:00 +26°C° 0,1 mm 5 m/S 749 mmHg 66%
    13:00 +27°C° 0,1 mm 5 m/S 749 mmHg 63%
    14:00 +27°C° 0,1 mm 5 m/S 749 mmHg 63%
    15:00 +27°C° 0,1 mm 5 m/S 749 mmHg 63%
    16:00 +27°C° 0,1 mm 5 m/S 749 mmHg 64%
    17:00 +26°C° 0,1 mm 4 m/S 748 mmHg 69%
    18:00 +23°C° 0,1 mm 4 m/S 748 mmHg 74%
    19:00 +22°C° 0,1 mm 3 m/S 748 mmHg 80%
    20:00 +21°C° 0 mm 3 m/S 749 mmHg 83%
    21:00 +20°C° 0 mm 3 m/S 749 mmHg 86%
    22:00 +20°C° 0 mm 3 m/S 749 mmHg 89%
    23:00 +19°C° 0 mm 3 m/S 749 mmHg 91%

    21 Juli, Samstag

    Zeit Temperatur Niederschläge Wind Luftdruck Luftfeuchtigkeit
    00:00 +19°C° 0 mm 2 m/S 749 mmHg 92%
    01:00 +18°C° 0 mm 2 m/S 749 mmHg 94%
    02:00 +18°C° 0 mm 2 m/S 749 mmHg 95%
    03:00 +17°C° 0 mm 2 m/S 749 mmHg 95%
    04:00 +17°C° 0 mm 2 m/S 749 mmHg 95%
    05:00 +18°C° 0 mm 2 m/S 749 mmHg 89%
    06:00 +19°C° 0 mm 2 m/S 749 mmHg 83%
    07:00 +20°C° 0 mm 2 m/S 749 mmHg 77%
    08:00 +23°C° 0 mm 2 m/S 749 mmHg 70%
    09:00 +24°C° 0 mm 3 m/S 749 mmHg 63%
    10:00 +25°C° 0 mm 3 m/S 749 mmHg 57%
    11:00 +26°C° 0 mm 3 m/S 749 mmHg 53%
    12:00 +26°C° 0 mm 4 m/S 749 mmHg 50%
    13:00 +27°C° 0 mm 4 m/S 748 mmHg 47%
    14:00 +27°C° 0 mm 4 m/S 748 mmHg 47%
    15:00 +26°C° 0 mm 4 m/S 748 mmHg 47%
    16:00 +26°C° 0 mm 3 m/S 748 mmHg 47%
    17:00 +25°C° 0 mm 3 m/S 748 mmHg 53%
    18:00 +24°C° 0 mm 2 m/S 748 mmHg 59%
    19:00 +21°C° 0 mm 2 m/S 748 mmHg 64%
    20:00 +20°C° 0 mm 2 m/S 748 mmHg 67%
    21:00 +19°C° 0 mm 2 m/S 748 mmHg 69%
    22:00 +18°C° 0 mm 2 m/S 749 mmHg 71%
    23:00 +17°C° 0 mm 2 m/S 749 mmHg 75%
    Mehr zeigen